EN

Hourly Weather Yablunivka

Today, 25 November, Wednesday

Time Temperature Precipitation Wind Pressure Humidity
00:00 +1°C° 0 mm 2 mps 746 mmHg 92%
01:00 +2°C° 0 mm 1 mps 747 mmHg 87%
02:00 +2°C° 0 mm 1 mps 746 mmHg 78%
03:00 +1°C° 0 mm 2 mps 746 mmHg 86%
04:00 +1°C° 0 mm 2 mps 746 mmHg 88%
05:00 +2°C° 0 mm 1 mps 745 mmHg 87%
06:00 +2°C° 0 mm 1 mps 745 mmHg 87%
07:00 +2°C° 0 mm 1 mps 746 mmHg 87%
08:00 +1°C° 0 mm 0 mps 746 mmHg 84%
09:00 +2°C° 0 mm 1 mps 746 mmHg 86%
10:00 +3°C° 0 mm 1 mps 746 mmHg 86%
11:00 +4°C° 0 mm 2 mps 746 mmHg 80%
12:00 +5°C° 0 mm 2 mps 746 mmHg 80%
13:00 +5°C° 0 mm 3 mps 746 mmHg 75%
14:00 +6°C° 0 mm 2 mps 746 mmHg 74%
15:00 +6°C° 0 mm 2 mps 746 mmHg 76%
16:00 +7°C° 0 mm 1 mps 745 mmHg 84%
17:00 +6°C° 0 mm 1 mps 745 mmHg 84%
18:00 +5°C° 0 mm 1 mps 745 mmHg 85%
19:00 +5°C° 0 mm 1 mps 745 mmHg 86%
20:00 +4°C° 0 mm 0 mps 745 mmHg 83%
21:00 +4°C° 0 mm 1 mps 745 mmHg 81%
22:00 +4°C° 0 mm 1 mps 745 mmHg 78%
23:00 +4°C° 0 mm 1 mps 745 mmHg 76%

Tomorrow, 26 November, Thursday

Time Temperature Precipitation Wind Pressure Humidity
00:00 +4°C° 0 mm 1 mps 745 mmHg 74%
01:00 +4°C° 0 mm 1 mps 745 mmHg 70%
02:00 +4°C° 0 mm 1 mps 745 mmHg 66%
03:00 +4°C° 0 mm 1 mps 745 mmHg 64%
04:00 +2°C° 0 mm 2 mps 744 mmHg 65%
05:00 +2°C° 0 mm 2 mps 744 mmHg 68%
06:00 +2°C° 0 mm 2 mps 744 mmHg 70%
07:00 +1°C° 0 mm 2 mps 744 mmHg 71%
08:00 +1°C° 0 mm 2 mps 744 mmHg 71%
09:00 +2°C° 0 mm 2 mps 744 mmHg 74%
10:00 +3°C° 0 mm 2 mps 744 mmHg 78%
11:00 +4°C° 0 mm 2 mps 744 mmHg 80%
12:00 +6°C° 0 mm 2 mps 744 mmHg 76%
13:00 +7°C° 0 mm 2 mps 744 mmHg 73%
14:00 +9°C° 0 mm 1 mps 744 mmHg 76%
15:00 +9°C° 0 mm 1 mps 743 mmHg 82%
16:00 +8°C° 0 mm 1 mps 743 mmHg 89%
17:00 +5°C° 0 mm 2 mps 742 mmHg 90%
18:00 +4°C° 0 mm 2 mps 742 mmHg 87%
19:00 +4°C° 0 mm 2 mps 742 mmHg 85%
20:00 +4°C° 0 mm 2 mps 742 mmHg 86%
21:00 +4°C° 0 mm 1 mps 742 mmHg 88%
22:00 +4°C° 0 mm 1 mps 742 mmHg 93%
23:00 +3°C° 0 mm 1 mps 742 mmHg 97%

Day after tomorrow, 27 November, Friday

Time Temperature Precipitation Wind Pressure Humidity
00:00 +3°C° 0 mm 1 mps 742 mmHg 100%
01:00 +1°C° 0 mm 0 mps 742 mmHg 100%
02:00 0°C° 0 mm 0 mps 742 mmHg 100%
03:00 -1°C° 0 mm 0 mps 742 mmHg 100%
04:00 -1°C° 0 mm 0 mps 741 mmHg 100%
05:00 -1°C° 0 mm 0 mps 741 mmHg 100%
06:00 -1°C° 0 mm 0 mps 741 mmHg 100%
07:00 -1°C° 0 mm 0 mps 741 mmHg 100%
08:00 -2°C° 0 mm 0 mps 741 mmHg 100%
09:00 -2°C° 0 mm 0 mps 741 mmHg 100%
10:00 -1°C° 0 mm 0 mps 741 mmHg 100%
11:00 0°C° 0 mm 0 mps 741 mmHg 99%
12:00 +2°C° 0 mm 0 mps 741 mmHg 96%
13:00 +4°C° 0 mm 0 mps 741 mmHg 93%
14:00 +5°C° 0 mm 0 mps 741 mmHg 92%
15:00 +5°C° 0 mm 0 mps 741 mmHg 93%
16:00 +5°C° 0 mm 0 mps 741 mmHg 96%
17:00 +4°C° 0 mm 0 mps 741 mmHg 92%
18:00 +4°C° 0 mm 0 mps 741 mmHg 92%
19:00 +5°C° 0 mm 1 mps 742 mmHg 94%
20:00 +5°C° 0 mm 1 mps 742 mmHg 96%
21:00 +5°C° 0 mm 1 mps 742 mmHg 98%
22:00 +5°C° 0 mm 1 mps 742 mmHg 100%
23:00 +4°C° 0 mm 2 mps 742 mmHg 100%

28 November, Saturday

Time Temperature Precipitation Wind Pressure Humidity
00:00 +3°C° 0 mm 2 mps 742 mmHg 99%
01:00 +2°C° 0 mm 3 mps 742 mmHg 99%
02:00 +2°C° 0 mm 3 mps 742 mmHg 99%
03:00 +2°C° 0 mm 3 mps 742 mmHg 99%
04:00 +2°C° 0 mm 3 mps 742 mmHg 99%
05:00 +1°C° 0.4 mm 3 mps 742 mmHg 100%
06:00 +2°C° 0.5 mm 2 mps 742 mmHg 100%
07:00 0°C° 0.1 mm 4 mps 742 mmHg 99%
08:00 0°C° 0 mm 3 mps 742 mmHg 98%
09:00 +1°C° 0 mm 2 mps 743 mmHg 100%
10:00 +1°C° 0 mm 2 mps 743 mmHg 100%
11:00 0°C° 0 mm 3 mps 743 mmHg 99%
12:00 +1°C° 0 mm 3 mps 743 mmHg 97%
13:00 +1°C° 0 mm 3 mps 742 mmHg 97%
14:00 +1°C° 0 mm 3 mps 742 mmHg 94%
15:00 +1°C° 0 mm 3 mps 742 mmHg 95%
16:00 0°C° 0.1 mm 3 mps 742 mmHg 97%
17:00 +1°C° 0 mm 2 mps 742 mmHg 100%
18:00 +2°C° 0 mm 1 mps 742 mmHg 100%
19:00 +2°C° 0 mm 1 mps 742 mmHg 100%
20:00 +2°C° 0 mm 1 mps 742 mmHg 100%
21:00 0°C° 0 mm 3 mps 742 mmHg 100%
22:00 -1°C° 0.1 mm 3 mps 742 mmHg 100%
23:00 -1°C° 0.4 mm 2 mps 743 mmHg 100%

29 November, Sunday

Time Temperature Precipitation Wind Pressure Humidity
00:00 -1°C° 0.4 mm 2 mps 743 mmHg 100%
01:00 -1°C° 0 mm 2 mps 742 mmHg 100%
02:00 -1°C° 0 mm 2 mps 742 mmHg 100%
03:00 -1°C° 0 mm 2 mps 742 mmHg 100%
04:00 -1°C° 0.2 mm 3 mps 742 mmHg 100%
05:00 -3°C° 0.1 mm 4 mps 742 mmHg 99%
06:00 -3°C° 0.1 mm 4 mps 742 mmHg 100%
07:00 -3°C° 0.2 mm 4 mps 743 mmHg 100%
08:00 -5°C° 0.2 mm 5 mps 743 mmHg 99%
09:00 -4°C° 0.2 mm 4 mps 743 mmHg 99%
10:00 -4°C° 0.3 mm 4 mps 743 mmHg 98%
11:00 -4°C° 0 mm 4 mps 743 mmHg 97%
12:00 -4°C° 0 mm 4 mps 743 mmHg 96%
13:00 -2°C° 0 mm 3 mps 743 mmHg 96%
14:00 -2°C° 0.1 mm 3 mps 743 mmHg 97%
15:00 -3°C° 0.2 mm 4 mps 743 mmHg 96%
16:00 -3°C° 0 mm 4 mps 743 mmHg 92%
17:00 -4°C° 0 mm 3 mps 743 mmHg 96%
18:00 -4°C° 0 mm 3 mps 742 mmHg 96%
19:00 -4°C° 0 mm 4 mps 742 mmHg 97%
20:00 -4°C° 0 mm 4 mps 742 mmHg 97%
21:00 -5°C° 0 mm 5 mps 742 mmHg 98%
22:00 -5°C° 0 mm 5 mps 742 mmHg 98%
23:00 -6°C° 0 mm 5 mps 742 mmHg 98%

30 November, Monday

Time Temperature Precipitation Wind Pressure Humidity
00:00 -6°C° 0 mm 5 mps 742 mmHg 98%
01:00 -5°C° 0 mm 4 mps 742 mmHg 97%
02:00 -5°C° 0 mm 4 mps 742 mmHg 97%
03:00 -5°C° 0 mm 4 mps 742 mmHg 96%
04:00 -5°C° 0 mm 4 mps 742 mmHg 98%
05:00 -5°C° 0 mm 4 mps 742 mmHg 97%
06:00 -5°C° 0 mm 4 mps 742 mmHg 95%
07:00 -5°C° 0 mm 4 mps 742 mmHg 95%
08:00 -5°C° 0 mm 4 mps 743 mmHg 95%
09:00 -5°C° 0 mm 4 mps 743 mmHg 95%
10:00 -4°C° 0 mm 4 mps 743 mmHg 93%
11:00 -4°C° 0 mm 4 mps 744 mmHg 91%
12:00 -4°C° 0 mm 3 mps 744 mmHg 89%
13:00 -2°C° 0 mm 3 mps 743 mmHg 87%
14:00 -2°C° 0 mm 3 mps 744 mmHg 85%
15:00 -2°C° 0 mm 2 mps 744 mmHg 88%
16:00 -2°C° 0 mm 2 mps 744 mmHg 92%
17:00 0°C° 0 mm 1 mps 744 mmHg 95%
18:00 -1°C° 0 mm 1 mps 744 mmHg 95%
19:00 -1°C° 0 mm 1 mps 745 mmHg 96%
20:00 -1°C° 0 mm 1 mps 745 mmHg 95%
21:00 0°C° 0 mm 1 mps 745 mmHg 95%
22:00 0°C° 0 mm 1 mps 745 mmHg 96%
23:00 0°C° 0 mm 1 mps 745 mmHg 96%
Show more

We Need Your Consent

Meteoprog and our Service Providers may store and access personal data such as cookies, device identifiers or other similar technologies on your device and process such data to personalise content and ads, as well as provide social media features and to analyse the traffic.

  • Store and/or access information on your device

    Cookies, device identifiers or other information can be stored or accessed on your device for the purposes indicated above.

  • Personalised ads and content, ad and content measurement, audience insights, and products development

    Ads and content can be personalised based on a profile. More data can be added to better personalise ads and content. Ad and content performance can be measured. Insights about the audience who saw the ads and content can be derived. Such data can be used to develop or improve user’s experience, systems and software.

By clicking ‘I Agree’ you will allow the use of indicated cookies, device identifiers, web beacons or other similar technologies. Your settings can be changed in the browser on your device.

For certain purposes, legitimate interests may be relied on, rather than consent. You can read more about this in our Privacy and Cookie Policy.